Regional Weather Roundup
Issued by NWS

Home | Current Version | Previous Version | Text Only | Print | Product List | Glossary Off
Versions: 1 2 3 4 5 6 7 8 9 10 11 12 13 14 15 16 17 18 19 20 21 22 23 24 25 26 27 28 29 30 31 32 33 34 35 36 37 38 39 40 41 42 43 44 45 46 47 48 49 50

000
ASUS43 KFSD 230610
RWRSD

WEATHER ROUNDUP FOR SOUTH DAKOTA
NATIONAL WEATHER SERVICE SIOUX FALLS SD
100 AM CDT WED APR 23 2014

NOTE: "FAIR" INDICATES FEW OR NO CLOUDS BELOW 12,000 FEET WITH NO
SIGNIFICANT WEATHER AND/OR OBSTRUCTIONS TO VISIBILITY.


SDZ001>005-009-010-012>017-230700-
NORTHWEST AND NORTH CENTRAL SOUTH DAKOTA

CITY           SKY/WX    TMP DP  RH WIND       PRES   REMARKS
BUFFALO          N/A     54  35  48 E13       29.44F
MOBRIDGE       CLOUDY    57  32  38 SE32G48   29.65F
$$

SDZ012>016-024>037-041>051-057-063-072>074-230700-
SOUTHWEST AND SOUTH CENTRAL SOUTH DAKOTA

CITY           SKY/WX    TMP DP  RH WIND       PRES   REMARKS
RAPID CTY ARPT CLOUDY    58  45  62 S13       29.55F
PIERRE         NOT AVBL
CUSTER         MOCLDY    54  42  64 SE10G20   29.63F
ELLSWORTH AFB  CLOUDY    58  46  62 S9        29.54F
PHILIP         CLOUDY    64  41  42 SE15      29.55F
PINE RIDGE     CLOUDY    62  41  46 SE31G44   29.56F
SPEARFISH      FAIR      63  41  45 S28G38    29.51F
WINNER         CLOUDY    61  32  33 SE10      29.77R
$$

SDZ004>011-016>023-039-040-230700-
NORTHEAST SOUTH DAKOTA

CITY           SKY/WX    TMP DP  RH WIND       PRES   REMARKS
ABERDEEN       LGT RAIN  51  39  63 SE16      29.84F
WATERTOWN      CLOUDY    52  34  50 SE16G26   29.90F
SISSETON         N/A     49  37  63 S13       29.94S
$$

SDZ017-020-022-023-036>040-048>070-230700-
SOUTHEAST SOUTH DAKOTA

CITY           SKY/WX    TMP DP  RH WIND       PRES   REMARKS
SIOUX FALLS    FAIR      55  34  45 SE17      29.93S
HURON          CLOUDY    58  33  39 SE16G32   29.83S
CHAMBERLAIN      N/A     58  33  39 SE24G36   29.76F
MITCHELL       MOCLDY    57  35  43 SE22      29.85F
YANKTON        FAIR      57  34  41 E14G20    29.91S
$$

ABBREVIATIONS USED IN REMARKS
   TC - TEMPERATURE IN CELSIUS
  WCI - WIND CHILL INDEX
   HX - HEAT INDEX
  VSB - VISIBILITY




USA.gov is the U.S. government's official web portal to all federal, state and local government web resources and services.